Location: ???????
(60.4260°N, 46.9069°E)
Time: 05:10:47
(UTC+00:00)

CZ-2D R/B - Pass Details

Date: 30 March 2020
Orbit: 791 x 845 km, 98.7° (Epoch: 05 June)

Event Time Altitude Azimuth Distance (km) Brightness Sun altitude
Rises 01:24:01 0° 20° (NNE) 3,387 6.0 -7.8°
Reaches altitude 10° 01:26:57 10° 5° (N) 2,459 5.0 -7.4°
Maximum altitude 01:30:45 20° 320° (NW) 1,866 3.8 -7.0°
Drops below altitude 10° 01:34:34 10° 276° (W) 2,470 4.1 -6.5°
Enters shadow 01:35:40 - 268° (W) 2,792 4.3 -6.4°
